Printer-friendly version
Follow the MPC on Twitter Follow the MPC on Facebook The MPC blog
Minor Planet Center

MPEC 2000-Q37 : 2000 PN9

The following Minor Planet Electronic Circular may be linked-to from your own Web pages, but must not otherwise be redistributed electronically.

A form allowing access to any MPEC is at the bottom of this page.


Read MPEC 2000-Q36 Read MPEC 2000-Q38


M.P.E.C. 2000-Q37                                Issued 2000 Aug. 30, 15:53 UT

     The Minor Planet Electronic Circulars contain information on unusual
         minor planets and routine data on comets.  They are published
   on behalf of Commission 20 of the International Astronomical Union by the
          Minor Planet Center, Smithsonian Astrophysical Observatory,
                          Cambridge, MA 02138, U.S.A.

             Prepared using the Tamkin Foundation Computer Network

             BMARSDEN@CFA.HARVARD.EDU or GWILLIAMS@CFA.HARVARD.EDU
          URL http://cfa-www.harvard.edu/iau/mpc.html  ISSN 1523-6714

                                   2000 PN9

                           Revision to MPEC 2000-P48

Observations:
     K00P09N 2 1990 08 02.39583 23 06 28.51 +19 46 17.1                      261
     K00P09N 2 1990 08 02.45139 23 06 26.48 +19 45 38.3                      261
     K00P09N 2 1990 08 21.32778 22 46 30.30 +13 14 11.0                      261
     K00P09N 2 1990 08 21.38681 22 46 24.77 +13 12 17.4                      261

Observer details:
261 Palomar Mountain-DSS.  Trails located and measured by G. Forti,
    A. Boattini, M. Tombelli, G. D'Abramo.  Independently located and
    measured by DANEOPS (A. Gnadig).  1.2-m Schmidt.

Orbital elements:
2000 PN9                                                             PHA 0.026A
Epoch 2000 Sept. 13.0 TT = JDT 2451800.5                Williams
M 310.00055              (2000.0)            P               Q
n   0.39316783     Peri.  293.54663     -0.23138963     -0.95014001
a   1.8453726      Node   164.46476     +0.88941692     -0.11954129
e   0.5898594      Incl.   51.30163     -0.39420349     +0.28799973
P   2.51           H   16.1           G   0.15           U   4
Residuals in seconds of arc
900802 261  0.7-  0.1+    000810 557  0.8-  0.0     000822 860  0.1-  0.6-
900802 261  1.2+  0.2+    000810 557  1.2+  0.5+    000822 860  0.1+  0.8+
900821 261  1.1-  0.5+    000810 046  0.7-  0.1+    000822 104  0.3-  0.2+
900821 261  0.9+  0.2-    000810 046  0.8+  0.2-    000822 104  0.2-  0.1-
000808 704  0.1-  0.3+    000810 046  0.3-  0.9+    000822 104  0.0   0.7+
000808 704  0.0   0.4-    000810 046  0.3+  0.4-    000822 104  0.2+  0.7+
000808 704  0.5+  0.6+    000810 046  0.2+  0.1+    000823 402  0.4-  0.2-
000808 704  0.3-  0.8-    000811 118  0.3-  0.2-    000823 402  0.2+  0.3-
000808 704  0.1-  0.1+    000811 118  0.8-  0.5-    000823 402  0.2-  0.5-
000808 557  0.1-  0.3-    000811 118  0.8-  0.4-    000823 360  0.3-  0.2-
000808 557  0.2-  0.0     000811 734  0.2-  0.5-    000823 360  0.2-  0.2-
000808 557  0.0   0.0     000811 734  1.2+  0.2+    000823 360  0.5-  0.3-
000809 704  0.3-  0.2+    000811 734 (2.0-  2.7-)   000823 104  1.9-  1.6-
000809 704  0.0   0.8+    000811 704  0.2-  0.3+    000824 118  0.1-  0.1-
000809 704  0.2+  0.6+    000811 704  0.3+  0.7+    000824 118  0.5+  0.1-
000809 704  0.3-  0.3-    000811 704  0.0   0.2-    000824 658  0.7-  0.3+
000809 704  0.8-  0.3+    000811 704  0.1-  0.4-    000824 658  0.1+  0.0
000809 422  0.4-  0.0     000811 413  0.1-  0.7+    000824 658  0.2-  0.1+
000809 422  1.0+  0.4+    000811 413  0.0   0.1+    000824 540  0.2-  0.1-
000809 422  0.5+  0.4+    000811 151  0.3+  0.2+    000824 540  0.2+  0.2-
000809 557  0.0   0.2+    000811 151  0.1+  1.0-    000825 118  0.1+  0.2+
000809 557  0.1-  0.1+    000811 151  0.2+  1.6+    000825 118  0.0   0.4+
000809 557  0.1+  0.2-    000811 151  0.8+  0.5-    000825 860  0.4+  0.4-
000809 104 (2.4+  0.9-)   000811 151 (2.5-  0.0 )   000825 860  0.2+  0.3+
000809 104  0.7-  0.1+    000811 151  0.9+  0.6-    000825 658  0.1+  0.3+
000809 104  0.7-  0.5+    000811 163  0.2-  0.9-    000825 658  0.4+  0.1+
000809 046  0.1-  0.5-    000811 163  0.4-  0.3-    000825 658  0.4+  0.3+
000809 046  0.1-  0.3+    000811 163  0.2-  0.5-    000828 118  0.3-  0.1+
000809 046  0.0   0.6+    000811 163  1.1-  0.1-    000828 118  0.4-  0.0
000809 046  0.3-  0.1+    000820 587  1.5+  0.9-    000828 658  0.2+  0.4+
000809 046  0.4-  0.5+    000820 587  0.9+  1.0-    000828 658  0.4+  0.0
000809 611 (1.6-  2.1-)   000820 587  0.8+  1.0-    000828 658  0.0   0.4+
000809 611  1.1+  0.1-    000821 046  0.3+  0.5-    000829 046  0.1-  0.2+
000809 611  0.6+  0.1-    000821 046  0.6+  0.4+    000829 046  0.3-  0.2+
000810 413  0.5-  0.6-    000821 046  0.2+  0.2-    000829 046  0.4-  0.2+
000810 413  0.0   0.2+    000821 046  0.3-  0.5+    000829 046  0.3+  0.0
000810 413  0.1-  0.3-    000821 046  0.3+  0.3+    000829 046  0.2-  0.1+

Ephemeris:
2000 PN9                 a,e,i = 1.85, 0.59, 51                  q = 0.7569
Date    TT    R. A. (2000) Decl.     Delta      r     Elong.  Phase     V
2000 08 24    22 15.50   +13 40.5    0.910    1.877   155.2    13.0    18.0
2000 08 29    22 05.92   +10 41.7    0.861    1.840   159.0    11.3    17.8
2000 09 03    21 55.70   +07 13.2    0.820    1.802   160.1    11.0    17.6
2000 09 08    21 45.13   +03 18.4    0.789    1.763   157.6    12.6    17.6
2000 09 13    21 34.57   -00 56.5    0.769    1.724   152.2    15.8    17.6
2000 09 18    21 24.36   -05 23.4    0.758    1.684   145.2    19.9    17.6
2000 09 23    21 14.83   -09 52.6    0.757    1.643   137.5    24.4    17.7
2000 09 28    21 06.28   -14 15.3    0.764    1.601   129.6    28.8    17.8
2000 10 03    20 58.95   -18 24.6    0.779    1.559   121.8    33.1    17.9
2000 10 08    20 52.99   -22 16.1    0.800    1.516   114.4    36.9    18.0
2000 10 13    20 48.47   -25 48.0    0.825    1.472   107.4    40.3    18.1
2000 10 18    20 45.40   -29 00.4    0.852    1.428   100.9    43.2    18.2
2000 10 23    20 43.75   -31 54.7    0.881    1.383    94.8    45.8    18.3
2000 10 28    20 43.48   -34 32.9    0.909    1.338    89.2    48.0    18.3
2000 11 02    20 44.53   -36 57.1    0.937    1.292    84.0    49.8    18.4
2000 11 07    20 46.80   -39 09.8    0.963    1.246    79.2    51.4    18.4
2000 11 12    20 50.20   -41 13.0    0.985    1.200    74.8    52.8    18.4
2000 11 17    20 54.63   -43 08.7    1.004    1.154    70.7    54.0    18.4
2000 11 22    21 00.01   -44 58.4    1.018    1.108    67.0    55.2    18.4
2000 11 27    21 06.28   -46 43.7    1.028    1.062    63.6    56.3    18.3
2000 12 02    21 13.33   -48 26.0    1.031    1.018    60.5    57.5    18.3

2000 12 12    21 29.37   -51 45.8    1.019    0.933    55.5    60.4    18.2
2000 12 22    21 47.09   -55 04.3    0.979    0.858    51.9    64.3    18.0
2001 01 01    22 05.02   -58 24.4    0.908    0.800    49.8    70.0    17.9
2001 01 11    22 20.46   -61 43.7    0.806    0.765    49.4    77.5    17.8
2001 01 21    22 29.17   -64 51.5    0.677    0.758    50.2    86.4    17.7
2001 01 31    22 24.53   -67 27.8    0.527    0.781    52.1    95.8    17.6
2001 02 10    21 54.56   -68 51.9    0.364    0.830    54.6   104.5    17.4
2001 02 20    20 31.85   -65 55.4    0.197    0.899    57.6   111.7    16.6
2001 03 02    17 34.69   -13 16.6    0.062    0.980    77.9    98.5    13.6
2001 03 12    14 49.19   +61 12.0    0.173    1.068   111.1    60.2    14.6
2001 03 22    13 29.65   +67 26.6    0.340    1.160   110.4    53.6    16.0
2001 04 01    12 51.23   +67 42.3    0.508    1.252   107.8    49.5    17.0
2001 04 11    12 32.35   +66 27.1    0.675    1.344   104.8    46.1    17.6
2001 04 21    12 24.39   +64 32.1    0.838    1.434   101.7    43.3    18.2
2001 05 01    12 23.35   +62 14.1    0.999    1.522    98.6    40.9    18.6
2001 05 11    12 26.94   +59 42.2    1.155    1.607    95.6    38.7    19.0
2001 05 21    12 33.64   +57 01.5    1.309    1.689    92.5    36.8    19.3
2001 05 31    12 42.58   +54 14.9    1.458    1.768    89.4    35.0    19.6
2001 06 10    12 53.12   +51 25.2    1.604    1.844    86.4    33.3    19.9
2001 06 20    13 04.82   +48 34.1    1.747    1.918    83.4    31.8    20.1
2001 06 30    13 17.43   +45 43.0    1.886    1.988    80.4    30.3    20.3
2001 07 10    13 30.74   +42 53.5    2.021    2.055    77.4    28.9    20.5
2001 07 20    13 44.61   +40 06.6    2.152    2.119    74.4    27.5    20.6
2001 07 30    13 58.97   +37 23.5    2.280    2.181    71.4    26.2    20.8
2001 08 09    14 13.72   +34 45.4    2.404    2.240    68.5    24.9    20.9
2001 08 19    14 28.84   +32 13.2    2.523    2.295    65.5    23.6    21.0

Gareth V. Williams           (C) Copyright 2000 MPC           M.P.E.C. 2000-Q37

Read MPEC 2000-Q36 Read MPEC 2000-Q38


MPEC number:

Enter an MPEC number in one of the following forms:

  • 1997-B01 (the full form)
  • J97B01 (the packed version of the full form)
  • B01 (the abbreviated form)

Valid HTML 4.01!